SCP
0 0 0 0 0 0 0 0 0 0 0 0 0 0 0 0 0 0 0 0 0 0 0 0 0 0 0 0 0 0 0 0 0 0 0 0 0 0 0 0 0 0 0 0
0 0 0 0 0 0 0 0 0 0 0 0 0 0 0 0 0 0 0 0 0 0 0 0 0 0 0 0 0 0 0 0 0 0 0 0 0 0 0 0 0 0 0 0
0 0 0 0 0 0 0 0 0 0 0 0 0 0 0 0 0 0 0 0 0 -0 -0 -0 0 0 0 0 0 0 0 0 0 0 0 0 0 0 0 0 0 0 0 0
0 0 0 0 0 0 0 0 0 0 0 0 -0 -0 0 0 0 0 0 0 0 -0 -0 0 0 0 0 0 0 0 0 0 0 0 0 0 0 0 0 0 0 0 0 0
0 0 0 0 0 0 0 0 0 0 0 0 0 0 -0 0 0 0 0 0 0 0 -0 0 0 0 0 0 0 0 0 0 0 0 0 0 0 0 0 0 0 0 0 0
0 0 0 0 0 0 0 0 0 0 0 0 0 0 -0 0 0 0 0 0 0 0 0 0 0 0 0 -0 0 0 -0 -0 0 0 0 0 0 0 0 0 0 0 0 0
0 0 0 0 0 0 0 0 0 0 0 0 0 0 0 0 -0 0 0 0 0 0 0 0 0 0 0 0 0 0 0 0 0 0 0 0 0 0 0 0 0 0 0 0
0 0 0 0 0 0 0 0 0 0 0 0 0 0 0 -0 0 0 0 0 0 0 0 0 0 0 0 0 0 0 0 0 0 0 0 0 0 0 0 0 0 0 0 0
0 0 0 0 0 0 0 0 0 0 0 0 0 0 0 0 0 0 0 0 0 0 0 -0 0 0 0 0 0 0 0 0 0 0 0 0 0 0 0 0 0 0 0 0
0 0 0 0 0 0 0 0 0 0 0 0 0 0 -0 -0 -0 0 0 0 0 0 0 0 0 0 0 0 0 0 0 0 0 0 0 0 0 0 0 0 0 0 0 0
0 0 0 0 0 0 0 0 0 0 0 0 0 0 0 0 0 0 -0 0 0 0 0 0 0 0 0 0 0 0 0 0 0 0 0 0 0 0 0 0 0 0 0 0
0 0 0 0 0 0 0 0 0 0 0 0 0 0 0 -0 -0 0 0 0 0 0 0 0 0 0 -0 0 0 0 0 0 0 0 0 0 0 0 0 0 0 0 0 0
0 0 0 0 0 0 0 0 0 0 0 0 0 -0 -0 0 0 0 0 0 0 0 0 0 0 0 0 0 0 0 0 0 0 0 0 0 0 0 0 0 0 0 0 0
0 0 0 0 0 0 0 0 0 0 0 0 0 0 -0 0 -0 0 0 0 0 0 0 0 0 0 0 0 0 0 0 0 0 0 0 0 0 0 0 0 0 0 0 0
0 0 0 0 0 0 0 0 0 0 0 0 0 0 -0 -0 0 0 0 0 -0 -0 -0 0 0 0 0 0 0 0 0 0 0 0 0 0 0 0 0 0 0 0 0 0
0 0 0 0 0 0 0 0 0 0 0 0 0 -0 -0 0 -0 0 0 0 0 -0 -0 -0 0 0 0 0 0 0 0 0 0 0 0 0 0 0 0 0 0 0 0 0
0 0 0 0 0 0 0 0 0 0 0 0 0 0 -0 -0 0 0 0 0 0 0 -0 -0 -0 0 0 0 0 0 0 0 0 0 0 0 0 0 0 0 0 0 0 0
0 0 0 0 0 0 0 0 0 0 0 0 0 0 0 0 -0 -0 0 0 0 0 0 -0 -0 -0 0 0 0 0 0 0 0 0 0 0 0 0 0 0 0 0 0 0
0 0 0 0 0 0 0 0 0 0 0 0 0 0 0 -0 -0 -0 0 0 0 0 0 0 0 0 0 0 0 0 0 0 0 0 0 0 0 0 0 0 0 0 0 0
0 0 0 0 0 0 0 0 0 0 0 -0 0 0 -0 -0 -0 0 -0 -0 -0 0 0 0 0 0 0 0 0 0 0 0 0 0 0 0 0 0 0 0 0 0 0 0
0 0 0 0 0 0 0 0 0 -0 0 0 0 0 -0 -0 -0 -0 -0 0 0 0 0 0 0 0 0 0 0 0 0 0 0 0 0 0 0 0 0 0 0 0 0 0
0 0 0 0 0 0 0 0 0 0 -0 -0 -0 0 0 0 -0 -0 0 0 0 0 0 0 0 0 0 0 0 0 0 0 0 0 0 0 0 0 0 0 0 0 0 0
0 0 0 0 0 0 0 0 0 0 -0 -0 -0 -0 -0 0 0 -0 0 0 0 0 0 0 0 0 0 0 0 0 0 0 0 0 0 0 0 0 0 0 0 0 0 0
0 0 0 0 0 0 0 0 0 0 0 0 0 0 0 0 0 0 -0 0 0 0 0 0 0 0 0 0 0 0 0 0 0 0 0 0 0 0 0 0 0 0 0 0
0 0 0 0 0 0 0 0 0 0 0 -0 -0 -0 -0 -0 -0 -0 -0 -0 0 0 0 0 0 0 0 0 0 0 0 0 0 0 0 0 0 0 0 0 0 0 0 0
0 0 0 0 0 0 0 0 0 0 -0 -0 -0 -0 -0 -0 -0 -0 -0 -0 -0 0 0 0 0 0 0 0 0 0 0 0 0 0 0 0 0 0 0 0 0 0 0 0
Wind_Speed_500mb
29 22 36 59 55 31 19 31 26 22 15 17 32 42 43 43 35 38 46 42 42 47 42 45 52 56 59 61 65 67 67 64 62 62 61 59 59 55 51 50 48 48 48 47
13 37 59 35 33 26 24 23 27 14 12 19 26 35 41 46 51 47 47 49 53 45 45 52 54 59 66 65 67 68 70 69 70 70 67 62 58 56 55 53 52 50 50 49
38 27 40 25 28 37 32 38 25 20 7 18 22 41 50 43 59 59 55 56 55 54 57 52 58 65 65 71 73 74 72 72 74 72 70 68 66 67 66 66 62 58 54 53
28 41 18 27 26 27 37 36 16 15 13 20 22 19 33 31 42 52 67 56 64 63 63 71 58 66 71 74 73 77 75 74 75 76 78 78 76 75 70 67 63 59 58 58
20 22 45 22 52 37 27 23 33 34 30 22 26 17 25 33 39 46 53 57 65 66 66 76 82 79 80 75 81 77 77 77 75 79 81 82 81 76 73 70 66 62 58 55
15 3 10 43 31 35 17 6 13 26 28 29 55 36 33 39 36 35 47 56 62 66 72 78 79 82 85 83 82 83 83 82 80 79 78 82 80 78 80 75 72 63 59 58
46 28 1 4 26 26 32 27 9 14 14 19 34 33 52 15 42 38 44 59 56 59 57 70 81 82 87 83 83 87 90 91 90 89 87 83 81 76 77 73 68 63 61 56
30 24 45 32 16 29 43 41 12 24 12 36 19 21 38 37 66 68 47 47 53 50 53 66 70 79 85 88 91 90 93 95 91 87 89 88 83 83 78 73 69 64 61 56
31 33 13 32 29 23 18 36 48 16 0 9 16 40 45 10 18 37 59 55 65 63 56 68 72 73 75 80 91 94 100 102 96 90 84 82 85 84 81 74 73 70 65 62
13 12 26 21 34 41 36 12 22 16 17 21 17 44 30 30 41 33 28 48 66 71 82 83 73 71 77 75 64 81 90 99 105 101 93 85 81 77 73 74 75 73 70 65
10 8 9 20 30 46 31 32 17 8 27 20 34 31 38 37 29 35 42 70 81 83 86 79 83 91 69 70 58 70 78 86 94 101 97 90 82 74 68 69 70 70 65 63
22 6 17 28 2 11 38 36 42 19 18 12 30 48 5 24 37 45 60 80 88 84 73 76 82 81 76 83 79 77 76 77 76 85 90 86 80 74 71 70 66 63 61 59
30 18 11 7 13 22 22 30 30 28 10 14 21 43 40 35 16 33 48 60 60 67 69 69 66 60 62 68 66 66 71 76 77 78 79 80 78 75 70 64 59 57 56 56
43 13 24 32 19 4 14 35 37 28 18 35 36 46 58 45 37 50 57 47 60 65 62 68 66 63 54 56 63 55 61 68 69 69 72 74 74 72 66 58 55 55 51 48
25 15 20 34 27 17 21 27 24 33 54 36 48 43 59 33 41 62 59 66 62 66 73 65 52 40 46 49 57 69 66 68 68 73 73 73 70 64 59 58 55 50 48 45
24 5 15 14 28 25 25 34 33 34 41 31 36 45 69 71 62 69 69 72 71 83 73 57 50 46 42 48 59 66 69 67 68 70 70 70 67 66 64 60 55 50 46 42
26 13 10 19 23 11 14 40 41 43 43 40 42 51 67 61 48 68 79 80 87 82 82 84 90 86 65 55 59 77 76 72 73 73 74 73 73 71 66 58 53 49 46 44
23 12 8 12 6 21 25 21 31 41 45 41 44 47 58 72 65 67 71 88 88 84 88 93 102 95 96 74 68 79 81 81 78 78 78 78 76 69 62 58 53 51 50 49
11 11 6 10 18 27 34 43 36 34 49 35 40 46 71 98 49 76 107 99 92 76 79 92 94 92 89 84 68 77 88 85 86 88 88 82 75 70 64 60 57 55 54 53
21 22 17 10 12 16 48 32 29 27 35 45 49 54 62 66 21 51 42 55 88 99 106 110 98 100 104 106 82 83 98 97 99 98 89 83 77 72 66 61 58 57 57 54
10 10 28 27 19 19 60 12 19 24 41 63 40 63 72 41 47 87 63 86 90 77 83 94 113 113 108 103 77 74 96 112 110 99 94 88 81 74 67 62 62 59 58 53
19 19 14 11 16 29 45 29 38 42 79 84 63 78 79 88 89 94 88 93 95 95 92 99 96 96 103 115 94 91 103 118 113 103 98 92 85 76 70 67 63 62 60 56
18 26 16 26 22 42 45 28 32 46 69 77 53 76 76 92 101 96 99 83 85 89 94 101 99 99 93 96 87 88 102 118 116 110 105 98 87 80 74 69 68 67 63 60
15 14 17 25 50 58 73 81 75 67 75 73 61 77 77 98 110 106 99 97 96 102 105 108 100 93 105 96 90 88 94 113 117 116 109 100 91 84 75 71 69 68 67 63
11 9 26 43 49 55 69 40 35 55 71 93 90 91 83 92 110 105 100 99 101 107 105 100 101 97 97 98 95 81 81 101 116 115 110 102 95 86 79 74 72 67 61 55
19 13 8 25 37 23 48 53 73 103 89 78 80 105 114 99 109 106 108 97 100 110 108 92 96 94 92 95 101 96 91 101 120 121 117 110 99 88 81 79 73 64 57 57
Wind_Direction_500mb
181 205 206 206 211 223 284 222 237 220 193 208 238 247 249 253 248 247 252 253 247 242 246 243 238 232 228 226 226 226 227 228 229 230 230 230 232 233 236 235 234 234 234 236
200 212 218 219 213 220 225 233 225 229 193 227 252 251 260 252 249 243 248 254 252 253 250 245 243 237 234 232 230 229 230 229 230 232 234 236 241 242 243 243 242 241 243 243
203 228 228 213 210 202 221 230 227 246 199 252 270 265 258 250 247 244 240 244 253 251 249 246 250 246 241 237 233 230 230 230 232 233 236 237 239 241 241 241 242 242 243 246
220 230 204 198 213 196 221 212 239 242 232 250 195 276 247 246 231 236 239 231 244 248 248 252 242 245 244 243 238 235 232 232 233 233 234 236 239 242 245 246 249 248 247 249
203 212 214 208 218 204 235 216 222 235 246 269 241 265 264 240 236 236 231 230 237 241 242 249 251 248 244 242 241 240 237 234 233 234 236 237 240 244 246 249 249 248 250 250
247 196 206 225 224 217 166 128 219 235 239 244 244 239 250 234 234 244 240 236 237 237 237 246 250 249 246 242 236 236 238 238 237 237 238 238 241 242 243 246 250 251 249 248
219 211 134 72 208 209 207 201 227 224 224 244 230 232 238 260 231 241 247 248 241 242 236 243 245 245 241 241 237 234 233 236 240 242 241 241 242 243 245 247 249 251 251 250
208 218 212 191 222 210 205 199 201 218 217 234 161 228 242 233 250 251 249 254 255 253 245 247 249 248 249 244 240 237 237 237 237 240 240 242 241 241 243 244 248 250 250 250
199 232 236 205 202 213 185 216 231 279 88 287 220 245 265 219 247 233 243 248 252 252 252 253 252 252 255 253 245 243 241 240 237 238 239 241 237 239 241 244 246 248 249 250
187 233 218 214 207 217 238 179 217 216 204 230 225 242 244 197 217 227 241 252 260 260 257 251 255 257 257 255 250 244 243 242 240 240 239 239 238 237 242 244 244 244 246 249
188 225 121 171 200 208 212 228 221 261 230 239 252 251 247 244 226 229 233 241 248 254 255 256 257 262 260 243 258 253 245 243 237 236 237 234 233 235 238 239 241 242 244 246
197 305 237 218 68 287 231 226 223 256 237 232 250 261 125 226 233 225 226 228 240 244 254 260 260 261 266 260 264 248 242 239 236 234 234 231 230 231 234 238 240 239 239 240
172 221 215 244 239 242 230 226 236 248 277 258 257 260 265 250 270 255 254 254 251 252 256 265 267 268 265 264 253 246 243 239 238 237 228 225 226 229 233 235 235 232 230 232
170 209 214 224 217 30 208 232 226 212 240 253 248 285 284 289 272 266 271 268 261 262 266 269 268 268 269 269 249 246 242 234 234 222 217 219 222 227 229 225 222 223 225 228
182 219 222 251 272 285 276 267 266 246 238 241 259 267 274 284 296 301 283 270 276 277 271 263 262 270 262 265 250 238 229 225 219 215 219 222 222 220 217 215 214 216 223 229
201 235 202 267 260 252 253 268 265 250 251 254 253 263 268 270 274 275 283 284 276 275 267 266 264 275 268 262 250 238 225 217 216 213 214 213 212 210 206 208 212 218 223 229
188 195 174 249 255 282 259 235 241 245 247 243 252 255 274 269 263 258 262 262 270 266 271 274 277 279 267 273 261 238 224 215 213 216 213 208 202 201 204 208 214 218 225 231
179 148 167 264 108 248 247 267 247 241 249 243 247 256 267 269 268 277 262 253 255 261 266 267 271 272 273 272 261 239 226 221 216 210 205 200 200 203 206 210 216 223 229 232
174 155 187 239 242 282 292 253 235 246 263 251 251 258 265 273 286 269 252 249 255 253 257 262 268 267 269 269 253 240 229 223 216 208 202 201 204 206 209 215 220 227 231 233
222 226 219 193 251 259 260 268 229 244 262 252 246 257 265 277 275 262 303 275 256 254 255 253 255 260 263 263 256 246 228 221 216 211 206 207 208 211 214 219 226 231 233 229
153 200 220 230 235 257 257 232 223 221 252 270 240 255 265 270 252 272 285 279 276 275 270 265 256 256 257 258 255 244 231 224 219 212 211 210 210 213 217 223 228 229 226 222
175 179 203 199 212 259 260 213 218 245 262 268 264 262 271 274 272 276 273 270 270 265 266 264 265 265 261 257 254 250 243 228 217 211 212 211 212 214 218 224 225 222 218 215
234 213 216 202 222 248 254 265 267 264 266 275 276 278 275 276 277 276 276 275 273 273 278 272 273 267 264 264 253 248 244 224 215 211 210 211 212 215 219 222 220 215 210 209
244 237 238 256 254 264 277 281 285 290 286 305 298 290 292 279 279 282 281 282 280 279 278 276 271 264 255 256 255 247 239 224 214 211 210 211 212 213 215 217 215 211 206 202
295 306 256 258 264 288 276 291 316 305 301 313 300 291 293 293 287 282 282 281 280 285 285 277 272 266 260 253 254 242 237 226 214 211 210 209 210 211 211 211 209 207 206 206
11 354 289 270 344 319 291 299 302 309 309 307 311 301 291 297 293 292 287 283 279 281 288 283 268 263 257 254 251 247 234 227 216 211 210 208 208 206 206 203 200 198 202 195
Wind_Speed_850mb
29 22 36 59 55 31 19 31 26 22 15 17 32 42 43 43 35 38 46 42 42 47 42 45 52 56 59 61 65 67 67 64 62 62 61 59 59 55 51 50 48 48 48 47
13 37 59 35 33 26 24 23 27 14 12 19 26 35 41 46 51 47 47 49 53 45 45 52 54 59 66 65 67 68 70 69 70 70 67 62 58 56 55 53 52 50 50 49
38 27 40 25 28 37 32 38 25 20 7 18 22 41 50 43 59 59 55 56 55 54 57 52 58 65 65 71 73 74 72 72 74 72 70 68 66 67 66 66 62 58 54 53
28 41 18 27 26 27 37 36 16 15 13 20 22 19 33 31 42 52 67 56 64 63 63 71 58 66 71 74 73 77 75 74 75 76 78 78 76 75 70 67 63 59 58 58
20 22 45 22 52 37 27 23 33 34 30 22 26 17 25 33 39 46 53 57 65 66 66 76 82 79 80 75 81 77 77 77 75 79 81 82 81 76 73 70 66 62 58 55
15 3 10 43 31 35 17 6 13 26 28 29 55 36 33 39 36 35 47 56 62 66 72 78 79 82 85 83 82 83 83 82 80 79 78 82 80 78 80 75 72 63 59 58
46 28 1 4 26 26 32 27 9 14 14 19 34 33 52 15 42 38 44 59 56 59 57 70 81 82 87 83 83 87 90 91 90 89 87 83 81 76 77 73 68 63 61 56
30 24 45 32 16 29 43 41 12 24 12 36 19 21 38 37 66 68 47 47 53 50 53 66 70 79 85 88 91 90 93 95 91 87 89 88 83 83 78 73 69 64 61 56
31 33 13 32 29 23 18 36 48 16 0 9 16 40 45 10 18 37 59 55 65 63 56 68 72 73 75 80 91 94 100 102 96 90 84 82 85 84 81 74 73 70 65 62
13 12 26 21 34 41 36 12 22 16 17 21 17 44 30 30 41 33 28 48 66 71 82 83 73 71 77 75 64 81 90 99 105 101 93 85 81 77 73 74 75 73 70 65
10 8 9 20 30 46 31 32 17 8 27 20 34 31 38 37 29 35 42 70 81 83 86 79 83 91 69 70 58 70 78 86 94 101 97 90 82 74 68 69 70 70 65 63
22 6 17 28 2 11 38 36 42 19 18 12 30 48 5 24 37 45 60 80 88 84 73 76 82 81 76 83 79 77 76 77 76 85 90 86 80 74 71 70 66 63 61 59
30 18 11 7 13 22 22 30 30 28 10 14 21 43 40 35 16 33 48 60 60 67 69 69 66 60 62 68 66 66 71 76 77 78 79 80 78 75 70 64 59 57 56 56
43 13 24 32 19 4 14 35 37 28 18 35 36 46 58 45 37 50 57 47 60 65 62 68 66 63 54 56 63 55 61 68 69 69 72 74 74 72 66 58 55 55 51 48
25 15 20 34 27 17 21 27 24 33 54 36 48 43 59 33 41 62 59 66 62 66 73 65 52 40 46 49 57 69 66 68 68 73 73 73 70 64 59 58 55 50 48 45
24 5 15 14 28 25 25 34 33 34 41 31 36 45 69 71 62 69 69 72 71 83 73 57 50 46 42 48 59 66 69 67 68 70 70 70 67 66 64 60 55 50 46 42
26 13 10 19 23 11 14 40 41 43 43 40 42 51 67 61 48 68 79 80 87 82 82 84 90 86 65 55 59 77 76 72 73 73 74 73 73 71 66 58 53 49 46 44
23 12 8 12 6 21 25 21 31 41 45 41 44 47 58 72 65 67 71 88 88 84 88 93 102 95 96 74 68 79 81 81 78 78 78 78 76 69 62 58 53 51 50 49
11 11 6 10 18 27 34 43 36 34 49 35 40 46 71 98 49 76 107 99 92 76 79 92 94 92 89 84 68 77 88 85 86 88 88 82 75 70 64 60 57 55 54 53
21 22 17 10 12 16 48 32 29 27 35 45 49 54 62 66 21 51 42 55 88 99 106 110 98 100 104 106 82 83 98 97 99 98 89 83 77 72 66 61 58 57 57 54
10 10 28 27 19 19 60 12 19 24 41 63 40 63 72 41 47 87 63 86 90 77 83 94 113 113 108 103 77 74 96 112 110 99 94 88 81 74 67 62 62 59 58 53
19 19 14 11 16 29 45 29 38 42 79 84 63 78 79 88 89 94 88 93 95 95 92 99 96 96 103 115 94 91 103 118 113 103 98 92 85 76 70 67 63 62 60 56
18 26 16 26 22 42 45 28 32 46 69 77 53 76 76 92 101 96 99 83 85 89 94 101 99 99 93 96 87 88 102 118 116 110 105 98 87 80 74 69 68 67 63 60
15 14 17 25 50 58 73 81 75 67 75 73 61 77 77 98 110 106 99 97 96 102 105 108 100 93 105 96 90 88 94 113 117 116 109 100 91 84 75 71 69 68 67 63
11 9 26 43 49 55 69 40 35 55 71 93 90 91 83 92 110 105 100 99 101 107 105 100 101 97 97 98 95 81 81 101 116 115 110 102 95 86 79 74 72 67 61 55
19 13 8 25 37 23 48 53 73 103 89 78 80 105 114 99 109 106 108 97 100 110 108 92 96 94 92 95 101 96 91 101 120 121 117 110 99 88 81 79 73 64 57 57
Wind_Direction_850mb
181 205 206 206 211 223 284 222 237 220 193 208 238 247 249 253 248 247 252 253 247 242 246 243 238 232 228 226 226 226 227 228 229 230 230 230 232 233 236 235 234 234 234 236
200 212 218 219 213 220 225 233 225 229 193 227 252 251 260 252 249 243 248 254 252 253 250 245 243 237 234 232 230 229 230 229 230 232 234 236 241 242 243 243 242 241 243 243
203 228 228 213 210 202 221 230 227 246 199 252 270 265 258 250 247 244 240 244 253 251 249 246 250 246 241 237 233 230 230 230 232 233 236 237 239 241 241 241 242 242 243 246
220 230 204 198 213 196 221 212 239 242 232 250 195 276 247 246 231 236 239 231 244 248 248 252 242 245 244 243 238 235 232 232 233 233 234 236 239 242 245 246 249 248 247 249
203 212 214 208 218 204 235 216 222 235 246 269 241 265 264 240 236 236 231 230 237 241 242 249 251 248 244 242 241 240 237 234 233 234 236 237 240 244 246 249 249 248 250 250
247 196 206 225 224 217 166 128 219 235 239 244 244 239 250 234 234 244 240 236 237 237 237 246 250 249 246 242 236 236 238 238 237 237 238 238 241 242 243 246 250 251 249 248
219 211 134 72 208 209 207 201 227 224 224 244 230 232 238 260 231 241 247 248 241 242 236 243 245 245 241 241 237 234 233 236 240 242 241 241 242 243 245 247 249 251 251 250
208 218 212 191 222 210 205 199 201 218 217 234 161 228 242 233 250 251 249 254 255 253 245 247 249 248 249 244 240 237 237 237 237 240 240 242 241 241 243 244 248 250 250 250
199 232 236 205 202 213 185 216 231 279 88 287 220 245 265 219 247 233 243 248 252 252 252 253 252 252 255 253 245 243 241 240 237 238 239 241 237 239 241 244 246 248 249 250
187 233 218 214 207 217 238 179 217 216 204 230 225 242 244 197 217 227 241 252 260 260 257 251 255 257 257 255 250 244 243 242 240 240 239 239 238 237 242 244 244 244 246 249
188 225 121 171 200 208 212 228 221 261 230 239 252 251 247 244 226 229 233 241 248 254 255 256 257 262 260 243 258 253 245 243 237 236 237 234 233 235 238 239 241 242 244 246
197 305 237 218 68 287 231 226 223 256 237 232 250 261 125 226 233 225 226 228 240 244 254 260 260 261 266 260 264 248 242 239 236 234 234 231 230 231 234 238 240 239 239 240
172 221 215 244 239 242 230 226 236 248 277 258 257 260 265 250 270 255 254 254 251 252 256 265 267 268 265 264 253 246 243 239 238 237 228 225 226 229 233 235 235 232 230 232
170 209 214 224 217 30 208 232 226 212 240 253 248 285 284 289 272 266 271 268 261 262 266 269 268 268 269 269 249 246 242 234 234 222 217 219 222 227 229 225 222 223 225 228
182 219 222 251 272 285 276 267 266 246 238 241 259 267 274 284 296 301 283 270 276 277 271 263 262 270 262 265 250 238 229 225 219 215 219 222 222 220 217 215 214 216 223 229
201 235 202 267 260 252 253 268 265 250 251 254 253 263 268 270 274 275 283 284 276 275 267 266 264 275 268 262 250 238 225 217 216 213 214 213 212 210 206 208 212 218 223 229
188 195 174 249 255 282 259 235 241 245 247 243 252 255 274 269 263 258 262 262 270 266 271 274 277 279 267 273 261 238 224 215 213 216 213 208 202 201 204 208 214 218 225 231
179 148 167 264 108 248 247 267 247 241 249 243 247 256 267 269 268 277 262 253 255 261 266 267 271 272 273 272 261 239 226 221 216 210 205 200 200 203 206 210 216 223 229 232
174 155 187 239 242 282 292 253 235 246 263 251 251 258 265 273 286 269 252 249 255 253 257 262 268 267 269 269 253 240 229 223 216 208 202 201 204 206 209 215 220 227 231 233
222 226 219 193 251 259 260 268 229 244 262 252 246 257 265 277 275 262 303 275 256 254 255 253 255 260 263 263 256 246 228 221 216 211 206 207 208 211 214 219 226 231 233 229
153 200 220 230 235 257 257 232 223 221 252 270 240 255 265 270 252 272 285 279 276 275 270 265 256 256 257 258 255 244 231 224 219 212 211 210 210 213 217 223 228 229 226 222
175 179 203 199 212 259 260 213 218 245 262 268 264 262 271 274 272 276 273 270 270 265 266 264 265 265 261 257 254 250 243 228 217 211 212 211 212 214 218 224 225 222 218 215
234 213 216 202 222 248 254 265 267 264 266 275 276 278 275 276 277 276 276 275 273 273 278 272 273 267 264 264 253 248 244 224 215 211 210 211 212 215 219 222 220 215 210 209
244 237 238 256 254 264 277 281 285 290 286 305 298 290 292 279 279 282 281 282 280 279 278 276 271 264 255 256 255 247 239 224 214 211 210 211 212 213 215 217 215 211 206 202
295 306 256 258 264 288 276 291 316 305 301 313 300 291 293 293 287 282 282 281 280 285 285 277 272 266 260 253 254 242 237 226 214 211 210 209 210 211 211 211 209 207 206 206
11 354 289 270 344 319 291 299 302 309 309 307 311 301 291 297 293 292 287 283 279 281 288 283 268 263 257 254 251 247 234 227 216 211 210 208 208 206 206 203 200 198 202 195